Kezdőlap
METAR-TAF:

METAR-TAF

Repülőterek :

Algona, Iowa, Amerikai Egyesült Államok

földrajzi szélesség: 43-05N, földrajzi hosszúság: 094-16W, magasság: 372 m

Jelenlegi meteorológiai megfigyelések

A jelentés 27 perccel ezelõtt készült, 16:55 UTC
Északnyugati szél 12 kt
Hőmérséklet 8°C
Páratartalom 61%
Légköri nyomás 1020 hPa
Látótávolság: 16.1 km

METAR: KAXA 181655Z AUTO 32012KT 10SM 08/01 A3012 RMK A01

Idő: 12:22 (17:22 UTC)


TAF: hiányzik

Meteorológiai megfigyelések és előrejelzések több, mint 4000 repülőtéren (METAR és TAF jelentéseket).

A térképen piros és sárga pontok jelzik az elérhető meteorológiai állomásokat.

Mozgassa az egeret a pont fölött, hogy megjelenjen az állomás neve.

Azután kattintson az időjárási megfigyelések és előrejelzések megtekintéséhez.

A térkép megváltoztatása: kattintson a fekete keresztel jelölt zöld gombra ráközelítéshez, a vonallal jelölt zöld gombra távolításhoz, vagy a zöld nyilakra a szomszédos térképek eléréséhez.


METAR-TAF: